Temp
3 3 3 4 3 3 3 3 3 2 2 2 2 3 3 3 3 3 3 3 3 3 3 3 3 3 4 4 4 5 5 5 5 5 5 5 5 5 5 5 4 4 4 5 5 4 4
2 2 3 3 3 3 3 2 2 2 2 2 2 2 2 2 2 2 2 2 3 3 3 3 3 3 3 4 5 5 5 5 5 5 5 5 5 4 4 5 4 4 5 5 5 5 5
2 2 2 3 3 3 3 2 2 1 2 2 2 1 1 2 2 2 2 2 2 2 2 3 3 3 3 3 4 4 4 4 4 4 4 4 4 4 3 4 4 4 4 5 6 5 5
2 2 2 2 2 2 2 2 1 1 1 2 1 1 1 0 1 2 2 2 2 2 2 2 2 3 3 4 4 3 4 4 4 4 4 3 3 3 3 3 3 3 3 3 5 4 4
2 2 1 1 2 1 1 1 1 1 0 0 1 0 -0 0 1 1 1 1 1 1 2 2 2 2 3 3 3 3 4 3 4 3 3 3 3 3 2 0 0 0 -0 -0 4 2 2
1 1 1 1 2 1 1 1 1 1 0 1 0 0 -1 -3 -1 0 0 1 1 1 2 2 2 2 3 3 2 3 3 3 3 3 3 2 2 1 -1 -1 -2 -2 -2 -1 -1 1 -1
1 1 2 1 1 1 1 1 1 1 1 0 0 -0 -1 -3 -2 -1 0 0 1 1 1 1 2 2 3 2 2 3 3 2 2 2 2 2 2 0 -1 -2 -2 -2 -2 -2 -0 -1 -2
1 2 1 1 2 1 1 1 1 1 0 0 -0 -0 -3 -3 -1 -1 -0 0 1 1 1 1 1 2 2 2 1 2 2 2 2 2 1 1 0 -1 -2 -2 -2 -1 -2 -2 -1 -1 -3
1 1 1 1 1 1 1 1 1 0 0 -0 -1 -1 -5 -3 -1 -1 -0 -0 0 1 1 1 1 1 1 0 1 1 1 1 1 1 -1 -2 -2 -3 -2 -2 -3 -3 -4 -4 -4 -3 -2
1 1 1 1 1 0 0 1 1 -0 -0 -1 -2 -2 -4 -3 -2 -1 -1 -0 0 0 0 0 0 -0 -0 -0 -0 -1 -1 -1 -1 -1 -2 -2 -3 -3 -3 -3 -4 -4 -4 -4 -4 -4 -5
-0 0 0 1 1 1 1 0 -0 -0 -1 -2 -3 -5 -4 -3 -3 -1 -1 -0 -0 0 -2 -1 -1 -1 -1 -1 -1 -2 -2 -1 -2 -1 -2 -2 -3 -3 -3 -4 -4 -5 -4 -4 -4 -4 -5
-0 -0 0 1 0 1 0 -0 -0 -1 -1 -2 -5 -5 -4 -3 -2 -2 -1 -1 -0 -1 -2 -1 -2 -1 -1 -2 -2 -2 -2 -2 -2 -2 -2 -3 -3 -3 -4 -5 -5 -4 -4 -5 -4 -4 -5
-1 -1 0 -1 0 0 0 -1 -1 -2 -2 -5 -6 -5 -4 -3 -3 -2 -1 -1 -1 -1 -1 -2 -2 -2 -1 -2 -3 -3 -3 -2 -3 -3 -4 -4 -5 -4 -5 -5 -4 -5 -5 -6 -5 -5 -4
-1 -1 -0 -0 -1 -1 -1 -3 -2 -3 -3 -6 -5 -5 -4 -4 -3 -2 -2 -2 -2 -0 -1 -2 -2 -2 -2 -3 -3 -3 -3 -4 -4 -5 -5 -5 -6 -5 -5 -6 -6 -6 -6 -6 -5 -4 -4
-2 -1 -2 -2 -2 -4 -3 -3 -3 -4 -6 -6 -5 -4 -4 -4 -4 -3 -3 -2 -1 -2 -1 -2 -2 -2 -3 -3 -3 -4 -4 -4 -5 -5 -5 -6 -6 -6 -5 -5 -6 -6 -6 -5 -6 -5 -5
-4 -4 -3 -4 -5 -4 -4 -3 -6 -7 -7 -6 -5 -5 -4 -4 -4 -3 -3 -3 -3 -2 -2 -2 -2 -2 -3 -4 -4 -4 -4 -5 -5 -5 -5 -6 -6 -6 -5 -5 -5 -6 -6 -6 -6 -4 -4
-6 -6 -6 -5 -5 -5 -5 -6 -9 -7 -7 -6 -6 -5 -5 -4 -4 -3 -4 -3 -4 -3 -3 -2 -3 -3 -3 -4 -4 -5 -5 -5 -5 -5 -6 -6 -6 -6 -6 -6 -6 -6 -6 -6 -7 -5 -4
-6 -6 -7 -6 -6 -6 -7 -10 -9 -8 -8 -7 -6 -6 -5 -4 -4 -4 -4 -4 -4 -4 -4 -3 -4 -4 -4 -5 -5 -6 -6 -6 -6 -6 -6 -6 -7 -7 -7 -5 -5 -5 -6 -7 -6 -5 -5
-8 -8 -8 -8 -8 -9 -10 -10 -9 -8 -8 -7 -6 -5 -5 -5 -5 -5 -5 -5 -5 -4 -5 -4 -5 -5 -6 -6 -6 -6 -6 -6 -6 -6 -6 -7 -7 -7 -6 -5 -6 -6 -5 -6 -6 -5 -5
-9 -9 -9 -9 -9 -10 -10 -10 -10 -9 -7 -7 -7 -6 -6 -6 -5 -5 -5 -5 -5 -5 -5 -6 -6 -6 -6 -6 -6 -6 -6 -6 -6 -6 -6 -7 -7 -7 -8 -7 -7 -7 -7 -6 -6 -5 -5
-9 -9 -10 -10 -11 -11 -10 -9 -8 -8 -8 -7 -7 -7 -6 -6 -6 -5 -6 -6 -6 -6 -6 -6 -6 -6 -7 -7 -7 -7 -7 -7 -6 -7 -7 -7 -7 -6 -6 -6 -6 -6 -7 -6 -6 -6 -6
-10 -10 -10 -11 -11 -11 -11 -10 -10 -9 -9 -8 -7 -6 -7 -6 -5 -6 -6 -6 -6 -7 -7 -7 -6 -7 -7 -7 -7 -7 -7 -7 -7 -6 -6 -7 -7 -7 -7 -6 -6 -7 -6 -5 -6 -6 -5
-10 -10 -11 -11 -11 -11 -11 -10 -10 -9 -8 -8 -7 -6 -6 -7 -7 -6 -6 -7 -7 -7 -7 -7 -7 -7 -7 -7 -7 -7 -7 -7 -7 -7 -6 -6 -7 -8 -7 -6 -6 -6 -7 -6 -7 -6 -7
-10 -10 -10 -11 -10 -10 -10 -10 -9 -9 -9 -8 -7 -7 -7 -7 -6 -7 -7 -7 -7 -7 -7 -7 -7 -7 -7 -8 -7 -7 -6 -6 -6 -6 -7 -7 -7 -8 -7 -6 -7 -7 -7 -7 -7 -6 -7
-10 -10 -10 -10 -10 -11 -11 -10 -9 -9 -9 -9 -8 -8 -7 -7 -8 -8 -8 -8 -8 -8 -8 -8 -8 -8 -8 -8 -8 -7 -6 -6 -6 -6 -7 -7 -7 -7 -7 -6 -6 -7 -6 -6 -8 -7 -7
-10 -10 -10 -11 -11 -11 -11 -11 -10 -9 -9 -9 -9 -9 -8 -8 -8 -8 -8 -8 -8 -8 -8 -9 -9 -8 -9 -9 -9 -9 -8 -8 -7 -7 -7 -7 -7 -7 -7 -7 -7 -8 -6 -5 -7 -7 -6
-10 -10 -10 -11 -12 -11 -11 -11 -10 -10 -9 -9 -9 -9 -9 -9 -8 -9 -9 -9 -9 -9 -9 -9 -9 -9 -9 -9 -9 -9 -8 -8 -8 -8 -8 -7 -7 -7 -8 -7 -8 -8 -6 -5 -6 -7 -7
-10 -10 -10 -10 -10 -11 -12 -11 -10 -10 -10 -10 -10 -9 -9 -9 -9 -9 -9 -9 -8 -8 -9 -9 -9 -10 -9 -10 -9 -9 -9 -8 -8 -8 -8 -8 -8 -8 -8 -8 -9 -8 -6 -7 -8 -8 -8
-10 -10 -10 -10 -10 -10 -11 -11 -11 -11 -11 -10 -10 -9 -10 -9 -10 -9 -9 -9 -9 -9 -9 -9 -9 -9 -10 -10 -9 -9 -9 -9 -9 -9 -9 -8 -9 -9 -9 -9 -9 -8 -8 -8 -8 -8 -8
Height
3104 3105 3107 3107 3107 3108 3108 3108 3107 3108 3109 3110 3110 3109 3110 3111 3111 3111 3112 3112 3112 3112 3112 3111 3110 3108 3107 3107 3107 3106 3105 3104 3104 3103 3103 3102 3101 3101 3101 3100 3099 3097 3097 3095 3093 3093 3092
3096 3096 3099 3100 3100 3101 3102 3101 3101 3102 3103 3106 3106 3105 3105 3106 3107 3108 3108 3109 3109 3109 3109 3108 3107 3105 3104 3103 3103 3103 3102 3102 3102 3101 3100 3099 3098 3097 3096 3097 3096 3093 3089 3088 3088 3088 3087
3085 3087 3089 3091 3093 3093 3095 3095 3095 3096 3097 3099 3100 3101 3101 3101 3102 3103 3104 3105 3106 3106 3105 3104 3103 3102 3100 3101 3099 3099 3098 3098 3098 3098 3097 3095 3094 3094 3092 3093 3090 3087 3083 3082 3082 3083 3081
3073 3076 3078 3081 3084 3084 3087 3088 3088 3088 3089 3092 3094 3094 3095 3095 3096 3097 3099 3101 3101 3102 3101 3100 3099 3098 3097 3096 3095 3095 3095 3094 3094 3093 3093 3091 3090 3090 3089 3088 3085 3083 3081 3075 3073 3075 3076
3062 3064 3067 3070 3074 3075 3078 3080 3081 3081 3082 3083 3085 3087 3089 3091 3091 3093 3094 3096 3097 3096 3096 3095 3094 3094 3094 3092 3091 3092 3092 3091 3091 3090 3088 3087 3086 3086 3085 3082 3080 3080 3077 3072 3059 3068 3067
3049 3053 3055 3059 3063 3065 3068 3072 3071 3073 3074 3076 3076 3079 3080 3083 3088 3088 3090 3091 3092 3093 3092 3090 3090 3093 3090 3089 3088 3089 3089 3087 3087 3087 3086 3084 3083 3083 3082 3081 3079 3076 3072 3066 3061 3054 3057
3036 3039 3042 3046 3052 3055 3058 3060 3063 3065 3066 3068 3068 3069 3070 3077 3082 3084 3086 3086 3089 3089 3087 3086 3086 3086 3086 3086 3085 3085 3086 3085 3084 3084 3081 3079 3080 3079 3077 3077 3076 3071 3068 3061 3051 3053 3050
3022 3026 3027 3033 3038 3043 3047 3050 3053 3054 3058 3058 3060 3062 3063 3071 3075 3078 3080 3080 3082 3085 3083 3081 3081 3081 3081 3081 3081 3082 3084 3083 3081 3080 3078 3077 3074 3075 3073 3071 3069 3066 3063 3055 3045 3045 3045
3005 3012 3015 3020 3025 3030 3035 3040 3043 3045 3047 3049 3051 3052 3058 3065 3070 3073 3075 3077 3078 3079 3079 3077 3077 3076 3078 3079 3079 3078 3080 3078 3076 3076 3074 3072 3073 3070 3067 3064 3063 3060 3060 3053 3048 3034 3033
2986 2993 3001 3005 3011 3017 3020 3029 3033 3035 3038 3041 3043 3046 3052 3059 3067 3068 3071 3072 3074 3075 3075 3073 3071 3073 3075 3074 3076 3075 3075 3076 3074 3072 3069 3068 3067 3065 3065 3064 3064 3053 3054 3049 3041 3035 3025
2971 2977 2985 2991 2996 3000 3008 3017 3021 3024 3028 3032 3035 3041 3048 3053 3060 3063 3067 3068 3070 3072 3072 3069 3068 3070 3071 3074 3075 3075 3074 3072 3071 3069 3070 3068 3063 3063 3062 3060 3060 3054 3049 3041 3033 3025 3022
2956 2965 2967 2978 2980 2987 2995 3003 3009 3015 3019 3023 3030 3037 3043 3049 3052 3057 3062 3065 3068 3071 3063 3063 3064 3067 3069 3070 3071 3071 3071 3071 3068 3067 3066 3065 3064 3063 3060 3057 3056 3051 3044 3031 3020 3016 3011
2940 2950 2952 2961 2965 2973 2985 2991 2999 3005 3010 3016 3025 3032 3041 3043 3050 3053 3058 3061 3065 3062 3061 3060 3060 3063 3066 3068 3069 3068 3067 3066 3067 3065 3060 3059 3057 3058 3057 3051 3047 3045 3039 3028 3013 3007 2995
2924 2933 2942 2952 2954 2964 2974 2981 2990 2995 3001 3010 3019 3027 3035 3040 3043 3049 3054 3058 3056 3054 3056 3056 3057 3061 3064 3065 3066 3065 3066 3066 3068 3066 3062 3057 3053 3055 3056 3056 3047 3043 3040 3033 3015 3006 2991
2912 2918 2930 2938 2947 2958 2964 2973 2982 2987 2997 3006 3015 3021 3030 3034 3038 3044 3050 3050 3048 3049 3052 3053 3058 3059 3059 3061 3063 3063 3064 3066 3067 3065 3065 3059 3052 3052 3052 3050 3050 3039 3036 3032 3018 3001 2993
2901 2910 2912 2929 2937 2947 2954 2965 2974 2981 2991 3002 3009 3018 3025 3029 3032 3038 3045 3046 3044 3046 3048 3052 3053 3055 3054 3057 3059 3060 3064 3066 3064 3064 3063 3060 3047 3048 3045 3043 3042 3041 3037 3026 3021 3006 2992
2905 2914 2919 2926 2933 2938 2948 2959 2972 2978 2987 2997 3006 3013 3019 3024 3027 3035 3037 3042 3042 3043 3046 3049 3049 3051 3052 3053 3054 3058 3063 3064 3062 3062 3061 3057 3052 3045 3041 3040 3039 3037 3035 3031 3024 3014 3002
2909 2914 2920 2925 2929 2936 2943 2960 2967 2972 2985 2992 3002 3008 3014 3019 3025 3028 3032 3036 3038 3040 3043 3045 3047 3049 3050 3051 3053 3057 3058 3060 3059 3058 3057 3055 3050 3043 3039 3034 3035 3037 3033 3029 3021 3007 3005
2910 2916 2922 2925 2928 2935 2944 2955 2966 2971 2982 2990 2999 3005 3009 3015 3019 3024 3028 3031 3034 3037 3040 3042 3045 3047 3048 3050 3053 3053 3054 3057 3055 3055 3054 3052 3048 3041 3034 3035 3034 3028 3023 3021 3014 3004 2996
2911 2916 2920 2924 2928 2935 2943 2954 2963 2971 2979 2988 2997 3001 3006 3010 3014 3021 3025 3028 3031 3034 3036 3039 3043 3045 3046 3049 3049 3050 3051 3052 3052 3053 3051 3048 3045 3045 3043 3037 3033 3023 3020 3014 3008 2985 2987
2912 2916 2919 2924 2930 2938 2947 2955 2963 2971 2977 2986 2993 2998 3001 3005 3010 3017 3023 3026 3028 3031 3034 3037 3040 3042 3045 3046 3045 3045 3045 3046 3048 3048 3046 3044 3041 3040 3037 3033 3030 3025 3022 3012 3005 2996 2991
2914 2917 2921 2926 2932 2939 2945 2952 2961 2969 2977 2984 2989 2991 2998 3002 3007 3014 3019 3023 3026 3029 3032 3034 3036 3039 3041 3041 3041 3040 3040 3042 3042 3041 3041 3040 3036 3034 3027 3028 3026 3023 3020 3011 3006 2998 2988
2916 2919 2923 2929 2934 2941 2947 2954 2963 2970 2974 2978 2986 2991 2997 3002 3005 3011 3016 3021 3025 3027 3029 3032 3032 3033 3036 3038 3037 3037 3038 3037 3036 3035 3036 3036 3035 3033 3021 3023 3020 3020 3015 3010 3006 3002 2994
2917 2921 2925 2930 2936 2942 2948 2955 2962 2967 2973 2980 2985 2991 2995 3000 3003 3010 3014 3017 3022 3025 3027 3028 3028 3030 3033 3034 3034 3033 3032 3031 3031 3033 3033 3032 3032 3030 3023 3022 3021 3020 3016 3011 3006 3001 2994
2918 2922 2925 2930 2935 2942 2948 2955 2960 2965 2972 2978 2984 2990 2994 2998 3002 3007 3011 3016 3021 3023 3024 3025 3025 3027 3028 3029 3030 3029 3029 3030 3031 3031 3030 3030 3028 3027 3024 3022 3019 3017 3013 3006 3003 3003 2998
2918 2922 2926 2930 2936 2941 2946 2953 2959 2965 2971 2977 2982 2988 2992 2997 3000 3005 3009 3015 3018 3019 3021 3021 3023 3024 3026 3028 3027 3027 3027 3028 3029 3029 3030 3028 3026 3025 3023 3021 3015 3014 3011 3008 3003 3002 2998
2918 2923 2927 2931 2936 2940 2946 2952 2958 2964 2970 2976 2981 2986 2990 2995 2999 3003 3007 3010 3012 3014 3016 3018 3020 3023 3025 3025 3025 3025 3026 3027 3027 3027 3026 3024 3023 3022 3021 3018 3015 3013 3009 3005 3005 3009 2999
2917 2922 2928 2932 2937 2942 2947 2952 2958 2963 2968 2974 2979 2982 2988 2993 2997 3001 3004 3006 3008 3010 3013 3017 3020 3020 3022 3022 3022 3023 3024 3024 3025 3026 3025 3024 3023 3022 3020 3019 3018 3013 3008 3006 3007 3003 3000
2915 2921 2927 2932 2937 2942 2947 2952 2958 2964 2969 2973 2977 2980 2985 2990 2995 2997 3000 3003 3006 3009 3013 3014 3017 3016 3018 3018 3020 3020 3021 3023 3023 3023 3023 3023 3023 3022 3022 3019 3016 3012 3009 3005 3003 3002 2999
Wind_Speed
38 36 35 34 34 30 30 28 26 24 25 25 21 19 18 17 16 14 13 11 11 10 9 9 11 12 13 14 14 10 9 9 10 11 13 13 15 17 17 15 17 23 26 28 30 29 30
42 41 38 36 36 33 31 28 27 27 27 27 27 22 19 17 16 15 13 12 12 11 11 12 13 13 13 16 11 7 9 9 10 10 12 14 14 14 16 16 20 25 29 30 31 32 34
45 45 42 38 37 36 35 33 29 29 27 29 25 27 20 17 17 16 14 13 14 12 14 14 13 14 13 16 13 11 11 10 10 13 14 16 17 18 22 21 19 23 30 32 32 31 33
49 46 45 41 39 37 36 33 32 35 31 30 30 27 26 19 20 18 15 15 14 14 14 13 13 13 14 15 14 12 10 13 15 15 14 14 15 14 17 20 22 24 26 30 34 29 28
53 50 47 46 43 38 36 35 36 36 37 38 37 31 24 21 20 18 14 15 13 13 13 14 14 12 15 14 12 11 13 14 12 9 10 14 16 16 17 19 24 16 24 30 44 30 30
54 53 52 50 47 44 40 38 40 40 38 40 35 36 32 22 22 17 16 15 14 13 13 15 15 12 15 9 13 15 13 13 9 11 11 13 13 12 11 13 18 25 31 37 40 47 37
57 57 54 54 48 46 42 40 43 45 41 40 43 38 28 23 23 21 18 14 14 15 15 15 14 12 14 16 17 14 10 9 10 14 14 13 12 11 10 14 20 26 31 40 50 48 37
60 59 51 54 52 47 46 44 42 40 43 39 42 40 26 22 24 21 18 16 14 13 15 16 17 16 17 15 12 12 8 10 12 14 16 13 4 15 16 17 23 28 37 44 52 47 36
65 62 60 56 56 52 51 46 47 40 42 37 34 37 25 25 24 21 17 14 13 14 14 17 16 15 10 10 9 6 8 11 13 14 17 16 10 8 19 26 31 40 29 36 37 51 52
71 63 61 59 56 61 46 50 42 43 37 31 32 28 27 28 26 20 16 13 13 13 8 10 11 8 9 6 2 4 11 14 14 14 18 9 12 24 26 32 31 35 29 32 41 44 34
70 61 60 59 64 56 55 51 42 45 33 30 26 28 29 28 24 20 16 16 13 8 3 8 10 9 8 4 4 6 9 12 11 15 17 11 23 28 32 31 28 30 30 42 45 46 40
64 63 64 64 59 60 57 45 43 43 32 28 28 31 31 28 23 19 16 14 12 7 6 12 9 10 5 4 4 6 9 12 15 15 16 18 25 20 20 24 23 29 34 45 44 27 13
68 65 64 64 66 66 54 51 48 33 30 27 32 32 31 26 22 20 19 16 10 8 7 14 13 13 3 11 8 8 13 15 17 18 22 29 7 18 6 37 26 26 32 9 7 2 12
66 68 67 68 70 57 56 44 38 32 29 35 35 33 29 26 22 21 20 20 11 8 19 13 16 11 5 12 6 9 10 12 8 11 20 16 10 17 34 30 26 39 17 12 7 9 19
55 65 68 71 67 50 47 41 34 32 37 37 35 31 29 26 25 25 21 22 13 12 18 17 13 7 10 11 9 7 8 6 6 11 8 15 10 35 28 19 29 19 25 22 21 23 14
69 71 72 56 41 39 34 34 37 41 40 38 34 32 30 27 28 21 23 18 12 15 13 13 11 10 12 9 6 3 4 2 12 9 12 16 35 29 29 32 10 16 21 18 19 7 6
35 32 36 34 32 32 34 37 39 40 38 36 35 33 31 29 23 25 24 15 12 15 13 12 11 14 14 10 8 6 4 4 5 12 16 24 19 30 36 29 24 17 23 18 20 14 7
25 25 26 26 26 29 38 41 42 40 38 35 32 29 28 25 25 25 24 16 16 16 13 11 12 15 14 12 9 7 7 5 10 11 15 14 17 22 38 13 1 8 26 21 12 16 17
16 17 21 24 27 34 35 36 35 36 36 33 30 28 24 25 25 23 20 17 16 15 9 8 10 9 11 10 6 7 7 9 13 18 15 15 11 20 24 8 12 41 34 39 29 29 22
9 14 19 25 30 36 37 35 35 35 35 32 31 25 27 26 24 22 23 21 17 13 12 11 11 12 12 11 7 4 9 11 15 18 22 21 18 20 15 30 35 40 41 39 30 29 12
9 13 18 28 32 30 33 33 33 33 33 33 31 28 24 24 25 20 22 18 14 13 17 15 13 13 10 6 8 13 17 22 20 19 11 13 19 25 26 30 29 27 27 30 26 34 19
13 14 22 22 30 33 37 34 32 35 31 31 34 28 23 15 22 20 21 16 17 11 10 9 11 14 13 11 12 17 20 21 22 17 10 13 20 26 34 26 24 24 24 22 21 38 38
16 17 19 23 24 26 26 27 29 30 30 31 30 24 23 20 18 19 24 22 17 15 9 11 12 12 15 17 19 22 24 21 19 15 9 15 17 19 20 23 27 3 25 21 19 25 38
16 20 21 26 26 30 29 31 28 30 30 26 23 24 18 15 14 14 18 15 16 20 16 14 16 14 11 11 14 16 12 9 3 5 10 16 16 16 19 19 2 6 24 20 16 20 32
18 20 21 23 32 30 30 28 25 25 24 25 23 22 21 19 19 17 20 14 13 15 16 15 12 11 7 7 12 3 5 5 5 8 5 11 8 8 6 8 13 7 25 29 18 16 30
19 19 20 21 21 25 32 31 27 26 25 23 21 22 19 20 21 20 20 15 17 16 16 12 11 7 4 8 5 2 2 3 1 3 4 6 5 6 6 4 2 7 26 19 5 14 23
23 19 18 20 19 20 28 23 24 25 24 24 22 22 17 18 21 22 21 19 17 16 11 11 6 9 9 7 5 2 1 2 2 4 8 12 3 8 8 4 3 14 26 17 7 10 16
24 22 20 19 16 20 24 23 21 23 21 16 16 18 19 21 17 23 22 19 17 12 12 14 12 12 11 7 4 3 4 2 2 4 5 5 5 5 5 4 3 20 21 16 11 9 11
23 25 24 21 17 13 13 17 17 17 17 15 13 16 19 19 15 19 20 21 18 17 12 11 12 9 11 7 7 5 4 4 5 2 4 3 6 5 4 5 9 14 17 17 11 10 11
Wind_Direction
270 270 270 273 275 273 279 279 284 291 296 293 292 285 281 276 271 260 253 247 244 246 255 270 277 280 282 280 276 280 275 280 288 292 292 287 283 280 277 280 274 262 270 265 263 260 262
264 267 267 268 272 274 275 275 277 278 282 287 289 282 276 270 263 254 248 247 249 253 266 274 278 276 277 281 282 277 261 267 273 277 280 278 273 278 283 287 289 287 279 277 273 271 269
260 263 264 263 265 270 272 273 276 282 283 286 274 281 266 262 257 249 242 242 252 263 275 276 273 272 272 275 275 264 269 268 267 276 279 278 278 285 291 295 284 283 285 282 280 285 281
256 258 260 261 262 263 267 274 277 279 278 279 275 273 267 251 242 238 236 237 252 270 273 274 271 272 270 270 271 263 254 264 281 288 291 286 281 285 294 301 301 305 296 300 288 289 290
257 256 256 258 258 259 262 266 274 275 281 280 281 262 252 242 240 237 240 255 260 271 282 279 276 272 261 264 253 251 270 285 295 301 295 289 293 300 306 320 315 310 310 303 293 302 305
253 257 256 257 259 258 259 264 262 272 276 274 275 272 249 231 238 233 242 239 251 267 274 276 270 260 251 251 254 272 285 291 300 296 297 288 296 302 313 309 313 310 311 301 296 295 311
253 253 256 257 257 260 260 260 265 268 269 270 267 267 242 220 230 236 230 236 252 266 268 259 262 247 256 262 266 273 279 285 300 304 296 298 312 304 294 296 298 300 306 304 288 294 311
249 247 252 254 260 258 262 261 261 261 268 274 268 270 223 214 222 225 225 231 246 257 264 263 257 252 255 253 254 264 274 294 307 312 317 315 312 315 300 293 292 298 309 299 290 291 309
246 246 247 248 252 259 255 260 266 268 262 276 269 267 202 208 215 223 225 234 247 259 258 263 256 250 231 224 236 273 292 311 324 325 334 327 341 305 306 308 315 311 312 308 299 299 292
242 243 245 246 245 249 258 256 258 259 268 266 268 245 198 207 211 213 221 239 253 259 260 246 239 211 194 218 250 294 308 328 333 327 336 354 307 314 313 305 315 307 315 297 290 298 290
239 238 239 243 244 252 250 252 260 259 257 255 234 193 201 205 207 209 217 229 238 234 252 187 192 179 177 182 200 247 306 314 316 319 322 318 300 309 310 316 315 300 301 302 299 291 292
232 235 238 239 238 249 251 246 253 253 251 238 201 196 201 199 195 202 220 224 226 206 230 178 181 189 186 175 219 268 300 303 317 317 302 294 299 315 320 324 309 296 305 305 296 286 261
230 232 240 246 235 239 250 243 252 238 235 210 186 194 200 193 196 201 211 212 206 214 187 182 184 192 186 170 200 266 300 321 340 335 327 332 355 350 329 336 327 317 324 301 301 228 266
233 229 233 238 238 241 241 233 236 227 216 179 188 192 194 190 199 203 205 207 212 222 181 182 182 187 176 171 213 255 291 314 337 345 325 335 324 330 326 326 299 314 321 286 296 305 288
233 227 224 229 233 219 224 230 222 199 178 184 189 190 190 196 191 207 199 206 215 184 195 188 181 191 160 187 217 243 296 310 332 346 333 321 287 310 331 325 305 297 323 328 288 281 274
196 201 207 209 201 208 211 216 192 178 181 185 186 187 199 189 203 196 204 209 209 202 200 195 194 186 171 178 205 270 303 286 330 317 314 311 304 318 324 325 335 307 320 336 327 321 281
173 176 184 190 199 198 197 185 179 178 181 183 190 189 194 199 192 206 200 201 212 214 215 222 214 189 203 212 240 264 222 317 358 338 314 315 309 307 323 316 310 325 334 313 300 283 326
183 190 195 197 197 199 185 179 184 176 180 188 186 191 188 190 199 200 198 176 198 224 233 226 215 207 206 224 218 238 212 248 299 317 335 333 309 306 315 346 177 313 328 321 311 309 293
176 187 202 202 200 178 166 167 175 178 180 185 183 188 187 203 191 193 188 188 201 218 232 212 194 192 203 212 224 210 227 249 266 290 313 325 311 319 324 317 316 328 340 326 314 296 272
180 184 186 183 177 172 167 173 175 177 182 180 189 182 196 193 191 192 186 190 190 206 225 195 189 192 206 227 214 226 242 272 266 283 289 297 297 293 266 292 310 314 326 331 329 319 284
201 198 185 175 165 168 168 175 178 180 180 185 186 191 194 192 189 191 195 200 199 189 205 211 221 227 224 221 249 255 255 263 282 292 293 284 284 292 295 306 319 326 346 348 2 12 15
180 183 183 174 172 172 171 171 180 178 185 192 191 184 178 183 200 187 191 193 189 197 217 218 197 181 211 240 253 267 272 286 300 307 301 292 298 309 306 314 319 312 360 356 18 14 12
181 178 176 159 163 164 172 172 179 182 188 192 191 192 196 182 172 185 200 199 184 180 175 204 222 228 228 243 255 268 277 291 294 302 304 303 311 308 294 318 325 153 7 2 346 340 6
185 185 184 179 171 174 173 175 181 187 190 188 187 194 185 180 195 197 188 181 189 199 207 217 227 248 262 272 282 289 298 306 53 22 293 286 297 287 284 320 325 15 7 355 354 343 8
168 173 173 181 187 181 183 177 176 188 192 196 192 195 199 181 182 168 169 182 209 215 215 223 242 250 264 309 320 338 85 118 74 21 2 350 325 271 261 291 284 314 11 349 351 7 7
173 174 171 169 166 176 183 175 182 186 193 191 196 198 203 197 189 188 184 194 212 221 231 239 213 229 300 312 1 62 80 8 349 332 320 353 307 293 303 272 312 338 360 360 151 7 6
181 178 178 169 166 168 169 170 176 185 194 193 194 198 192 201 199 186 190 196 210 224 206 185 190 199 246 279 322 100 233 332 289 331 344 5 30 4 336 273 262 346 349 356 53 335 3
185 185 181 176 165 183 175 178 177 173 176 184 194 205 201 192 198 200 203 209 226 219 194 195 201 219 238 251 193 201 235 248 266 316 357 8 359 342 337 338 322 344 350 12 2 344 334
190 188 188 190 182 174 176 177 179 175 177 185 193 202 200 198 207 206 215 223 230 235 236 218 212 206 213 196 197 192 214 289 287 301 327 283 356 337 319 293 334 354 357 348 348 325 318